Weather History for Jacksonville NAS, FL

Change the Weather History Date:

Monday, May 28, 2012

  Actual Average Record
Temperature  
Mean Temperature 78 °F -  
Max Temperature 86 °F 86 °F 95 °F (2006)
Min Temperature 73 °F 69 °F 66 °F (2001)
Cooling Degree Days 14    
Growing Degree Days 28 (Base 50)    
Moisture  
Dew Point 70 °F    
Average Humidity 82    
Maximum Humidity 94    
Minimum Humidity 57    
Precipitation  
Precipitation 1.96 in - - ()
Sea Level Pressure  
Sea Level Pressure 29.71 in    
Wind  
Wind Speed 24 mph (SSE)    
Max Wind Speed 37 mph    
Max Gust Speed 48 mph    
Visibility 6 miles    
Events Rain , Thunderstorm    
Averages and records for this station are not official NWS values.
T = Trace of Precipitation, MM = Missing Value Source: NWS Daily Summary

Daily Weather History Graph

Daily Weather History Graph

Search for Another Location

Airport:

Trip Planner

Search our weather history database for the weather conditions in past years. The results will help you decide how hot, cold, wet, or windy it might be!

Date:

Astronomy

May. 28, 2012 Rise Set
Actual Time 6:26 AM EDT 8:21 PM EDT
Civil Twilight 5:59 AM EDT 8:48 PM EDT
Nautical Twilight 5:26 AM EDT 9:21 PM EDT
Astronomical Twilight 4:52 AM EDT 9:56 PM EDT
Moon 1:14 PM EDT (5/28) 1:16 AM EDT (5/28)
Length of Visible Light 14h 49m
Length of Day
13h 55m
Waxing Crescent, 48% of the Moon is Illuminated
May 28
Waxing Crescent
May 28
First Quarter
Jun 4
Full
Jun 11
Last Quarter
Jun 19
New

Hourly Weather History & Observations

Time (EDT) Temp. Heat Index Dew Point Humidity Pressure Visibility Wind Dir Wind Speed Gust Speed Precip Events Conditions
12:17 AM 75.2 °F - 71.6 °F 89% 29.47 in 2.5 mi NNW 35.7 mph 44.9 mph 0.02 in Rain Rain
12:39 AM 75.2 °F - 71.6 °F 89% 29.45 in 3.0 mi NW 23.0 mph 35.7 mph 0.04 in Rain Light Rain
12:53 AM 75.0 °F - 72.0 °F 90% 29.43 in 3.0 mi NW 17.3 mph 26.5 mph 0.07 in Rain Light Rain
1:28 AM - - - N/A% - - North - - N/A   Unknown
1:53 AM 75.0 °F - 72.0 °F 90% 29.45 in 7.0 mi ESE 9.2 mph - 0.01 in   Overcast
2:09 AM 75.2 °F - 71.6 °F 89% 29.47 in 6.0 mi ESE 16.1 mph - 0.00 in Rain Light Rain
2:53 AM 73.0 °F - 71.1 °F 93% 29.47 in 5.0 mi SSE 19.6 mph 25.3 mph 0.00 in Rain Light Rain
3:41 AM 73.4 °F - 69.8 °F 88% 29.50 in 1.5 mi SSE 29.9 mph 38.0 mph 0.08 in Rain Heavy Rain
3:53 AM 73.0 °F - 70.0 °F 90% 29.50 in 2.0 mi SSE 33.4 mph 41.4 mph 0.13 in Rain Heavy Rain
4:00 AM - - - N/A% - - North - - N/A   Unknown
4:21 AM 73.4 °F - 69.8 °F 88% 29.53 in 4.0 mi SSE 35.7 mph 47.2 mph 0.04 in Rain Rain
4:47 AM 73.4 °F - 69.8 °F 88% 29.56 in 5.0 mi SSE 36.8 mph 48.3 mph 0.06 in Rain Light Rain
4:53 AM 73.0 °F - 70.0 °F 90% 29.56 in 5.0 mi SSE 34.5 mph 48.3 mph 0.06 in Rain Light Rain
5:47 AM 73.4 °F - 69.8 °F 88% 29.63 in 2.0 mi SSE 32.2 mph 46.0 mph 0.26 in Rain Rain
5:53 AM 73.0 °F - 70.0 °F 90% 29.62 in 2.0 mi SSE 28.8 mph 41.4 mph 0.32 in Rain Rain
6:09 AM 73.4 °F - 69.8 °F 88% 29.65 in 1.5 mi SSE 27.6 mph 44.9 mph 0.19 in Rain Heavy Rain
6:53 AM 73.0 °F - 70.0 °F 90% 29.68 in 1.5 mi South 28.8 mph 36.8 mph 0.46 in   Overcast
7:38 AM 73.4 °F - 69.8 °F 88% 29.73 in 1.5 mi South 27.6 mph 36.8 mph 0.08 in Rain Light Rain
7:53 AM 73.9 °F - 71.1 °F 91% 29.73 in 1.5 mi South 25.3 mph 40.3 mph 0.11 in   Overcast
8:10 AM 73.4 °F - 71.6 °F 94% 29.75 in 2.0 mi South 26.5 mph 41.4 mph 0.02 in   Overcast
8:23 AM 75.2 °F - 71.6 °F 89% 29.76 in 3.0 mi South 21.9 mph 33.4 mph 0.03 in Rain Light Rain
8:53 AM 75.0 °F - 69.1 °F 82% 29.77 in 7.0 mi South 20.7 mph 32.2 mph 0.03 in   Overcast
9:53 AM 77.0 °F - 69.1 °F 76% 29.79 in 10.0 mi South 23.0 mph 32.2 mph N/A   Overcast
10:53 AM 77.0 °F - 70.0 °F 79% 29.81 in 5.0 mi South 15.0 mph - 0.00 in Rain Light Rain
11:05 AM 78.8 °F - 71.6 °F 78% 29.81 in 8.0 mi SSE 12.7 mph - 0.00 in   Overcast
11:53 AM 80.1 °F 83.8 °F 72.0 °F 76% 29.80 in 6.0 mi SSE 20.7 mph 25.3 mph 0.02 in Rain Light Rain
12:53 PM 78.1 °F - 70.0 °F 76% 29.82 in 7.0 mi SSW 19.6 mph 27.6 mph 0.16 in   Mostly Cloudy
1:14 PM 75.2 °F - 69.8 °F 83% 29.83 in 9.0 mi SSW 13.8 mph - 0.00 in Rain , Thunderstorm Light Thunderstorms and Rain
1:31 PM 78.8 °F - 71.6 °F 78% 29.82 in 10.0 mi SSE 11.5 mph 18.4 mph 0.00 in   Mostly Cloudy
1:53 PM 82.0 °F 86.3 °F 71.1 °F 69% 29.80 in 10.0 mi South 17.3 mph 26.5 mph 0.00 in   Mostly Cloudy
2:53 PM 82.9 °F 85.8 °F 68.0 °F 60% 29.81 in 10.0 mi South 18.4 mph 31.1 mph N/A   Mostly Cloudy
3:53 PM 84.9 °F 88.2 °F 68.0 °F 57% 29.80 in 10.0 mi South 18.4 mph - N/A   Mostly Cloudy
4:53 PM 84.0 °F 87.8 °F 69.1 °F 61% 29.80 in 10.0 mi SSE 16.1 mph 26.5 mph N/A   Mostly Cloudy
5:53 PM 82.0 °F 84.9 °F 68.0 °F 62% 29.81 in 10.0 mi SSE 25.3 mph 31.1 mph N/A   Mostly Cloudy
6:53 PM 80.1 °F 82.7 °F 68.0 °F 67% 29.83 in 10.0 mi SSE 19.6 mph 26.5 mph N/A   Mostly Cloudy
7:53 PM 78.1 °F - 68.0 °F 71% 29.83 in 10.0 mi SSE 21.9 mph 34.5 mph N/A   Mostly Cloudy
8:35 PM 75.2 °F - 69.8 °F 83% 29.88 in 1.8 mi South 15.0 mph - 0.16 in Rain Heavy Rain
8:53 PM 75.0 °F - 70.0 °F 84% 29.87 in 2.5 mi SE 10.4 mph - 0.35 in Rain Heavy Rain
9:51 PM 75.2 °F - 71.6 °F 89% 29.90 in 10.0 mi South 9.2 mph - 0.08 in   Mostly Cloudy
9:53 PM 75.9 °F - 71.1 °F 85% 29.88 in 10.0 mi South 11.5 mph - 0.08 in Rain Light Rain
10:53 PM 75.9 °F - 69.1 °F 79% 29.89 in 10.0 mi SSE 17.3 mph 27.6 mph 0.01 in Rain Light Rain
11:49 PM 75.2 °F - 69.8 °F 83% 29.91 in 2.0 mi South 19.6 mph 27.6 mph 0.10 in Rain Rain
11:53 PM 73.9 °F - 69.1 °F 85% 29.90 in 2.0 mi South 17.3 mph 27.6 mph 0.15 in Rain Rain